This is the latest recevied weather packets stored in our database for station/object IZ8NVY-11. If no packets are shown the sender has not sent any weather packets the latest 10 day(s).
| Time | Temp. | Humidity | Pressure | Rain* | Wind** | Luminosity | Snow |
|---|---|---|---|---|---|---|---|
| 1777325525 | 17.22° C | 37% | 885 hPa | - | - | - | - |
| 1777321924 | 17.78° C | 37% | 885.1 hPa | - | - | - | - |
| 1777318325 | 17.78° C | 39% | 885.3 hPa | - | - | - | - |
| 1777314723 | 17.78° C | 42% | 884.8 hPa | - | - | - | - |
| 1777311122 | 20.56° C | 44% | 884.5 hPa | - | - | - | - |
| 1777307521 | 25.56° C | 42% | 884.6 hPa | - | - | - | - |
| 1777303920 | 26.67° C | 41% | 884.8 hPa | - | - | - | - |
| 1777300320 | 25.56° C | 43% | 884.9 hPa | - | - | - | - |
| 1777296719 | 25° C | 45% | 885.3 hPa | - | - | - | - |
| 1777293118 | 24.44° C | 44% | 885.7 hPa | - | - | - | - |
| 1777289517 | 25° C | 42% | 885.8 hPa | - | - | - | - |
| 1777285917 | 25.56° C | 42% | 886.3 hPa | - | - | - | - |
| 1777282316 | 24.44° C | 43% | 886.5 hPa | - | - | - | - |
| 1777278715 | 25° C | 43% | 886.7 hPa | - | - | - | - |
| 1777275117 | 26.11° C | 42% | 886.5 hPa | - | - | - | - |
| 1777271513 | 23.89° C | 41% | 886.3 hPa | - | - | - | - |
| 1777267922 | 18.89° C | 46% | 886.2 hPa | - | - | - | - |
| 1777264313 | 16.11° C | 46% | 885.9 hPa | - | - | - | - |
| 1777260711 | 16.11° C | 45% | 885.8 hPa | - | - | - | - |
| 1777257110 | 15.56° C | 43% | 885.8 hPa | - | - | - | - |
| 1777253509 | 15.56° C | 42% | 885.9 hPa | - | - | - | - |
| 1777250099 | 16.11° C | 43% | 885.9 hPa | - | - | - | - |
| 1777249909 | 16.11° C | 43% | 885.9 hPa | - | - | - | - |
| 1777246308 | 16.11° C | 46% | 886.3 hPa | - | - | - | - |
| 1777242707 | 16.67° C | 43% | 886.5 hPa | - | - | - | - |
* Rain since midnight (hover to see other rain measurements)
** Current wind speed in m/s (hover to see current wind gust speed)